Location: Little Elm
(33.1626°N, 96.9375°W)
Time: 03:37:51
(UTC+00:00)

H-2A R/B (2) - Pass Details

Date: 08 July 2022
Orbit: 425 x 34397 km, 28.9° (Epoch: 14 August)

Event Time Altitude Azimuth Distance (km) Brightness Sun altitude
Exits shadow 08:43:15 11° 195° (SSW) 20,179 8.6 -26.3°
Maximum altitude 17:15:39 76° 176° (S) 4,055 7.5 69.9°
Drops below altitude 10° 17:26:12 10° 92° (E) 3,800 6.0 71.8°
Sets 17:27:50 0° 90° (E) 4,272 6.1 72.1°
